Location: Harbor Island
(32.3990°N, 80.4435°W)
Time: 05:48:58
(UTC-04:00)

Daily predictions for brighter satellites

Satellite Brightness Start Highest point End
(mag) Time Altitude Azimuth Time Altitude Azimuth Time Altitude Azimuth
Cosmos 2333 Rocket 4.4 00:21:21 21° NNW 00:21:21 21° NNW 00:23:42 10° N
ATLAS 3B R/B 4.5 01:02:36 10° N 01:06:04 23° NNE 01:06:04 23° NNE
ATLAS 2AS CENTAUR R/B 4.4 02:20:12 28° NW 02:20:12 28° NW 02:26:21 10° N
Lacrosse 5 rocket 4.5 03:05:58 14° ENE 03:05:58 14° ENE 03:06:39 10° ENE
Resurs 1-4 Rocket 3.9 03:05:38 10° NNE 03:08:31 27° ENE 03:08:31 27° ENE
CZ-2D R/B 3.6 03:15:40 10° NNE 03:18:56 32° NE 03:18:56 32° NE
COSMOS 2455 3.6 03:23:29 10° NNW 03:29:09 49° NE 03:29:09 49° NE
Cosmos 1943 Rocket 4.4 03:27:00 10° NNW 03:27:54 15° NNW 03:27:54 15° NNW
COSMOS 2406 4.1 03:35:40 45° N 03:35:40 45° N 03:39:35 10° NNE
NOSS 3-2 (C) 3.9 03:40:36 10° NNW 03:48:22 86° WSW 03:50:12 59° SSE
ARIANE 5 R/B 3.3 03:45:59 10° NNE 03:49:48 50° NNE 03:49:48 50° NNE
SL-16 R/B 2.5 03:51:39 79° NNE 03:51:39 79° NNE 03:57:32 10° NNW
Cosmos 1821 Rocket 4.0 03:45:21 10° N 03:51:18 74° ENE 03:51:18 74° ENE
USA 267 3.6 03:48:48 10° ESE 03:55:12 61° NE 04:01:37 10° NW
Cosmos 1371 Rocket 4.5 03:51:36 10° N 03:56:34 60° NE 03:56:34 60° NE
CENTAUR R/B 4.2 03:51:37 10° NNW 03:59:11 44° NE 04:07:07 10° ESE
ADEOS Rocket 3.0 03:53:51 10° N 04:00:01 80° WNW 04:00:01 80° WNW
Cosmos 2239 Rocket 4.4 03:55:43 10° N 04:01:34 81° NNW 04:01:34 81° NNW
Cosmos 1953 4.3 04:01:04 10° N 04:02:57 26° NNE 04:02:57 26° NNE
Cosmos 1818 3.7 04:07:00 72° NNE 04:07:00 72° NNE 04:11:52 10° NNE
Cosmos 1535 Rocket 4.3 04:03:06 10° N 04:09:16 81° W 04:09:16 81° W
Cosmos 1605 Rocket 4.5 04:06:00 10° N 04:12:04 56° E 04:15:45 24° SSE
Cosmos 1934 Rocket 3.9 04:07:16 10° N 04:13:36 87° E 04:14:55 59° S
Okean O Rocket 4.0 04:12:35 10° NE 04:15:37 18° E 04:18:10 12° SE
ADEOS II 4.2 04:12:31 10° NE 04:16:28 21° E 04:20:25 10° SE
UNKNOWN OBJECT B 4.1 04:13:31 10° NNE 04:16:05 39° NNE 04:16:05 39° NNE
CZ-3A R/B 4.4 04:18:13 15° SSE 04:20:59 19° SE 04:31:46 10° E
OAO 1 4.4 04:29:44 73° S 04:30:00 75° SSE 04:35:28 10° ENE
Tiangong 1 3.9 04:33:00 13° N 04:33:03 13° NNE 04:34:26 10° NE
Lacrosse 5 rocket 2.9 04:41:40 28° NW 04:41:44 28° NW 04:45:46 10° NNE
Cosmos 1733 3.3 04:38:01 10° N 04:41:23 68° NNE 04:41:23 68° NNE
Cosmos 2098 Rocket 4.3 04:40:39 10° N 04:41:44 21° N 04:41:44 21° N
Delta 2 Rocket 3.7 04:45:44 45° NNE 04:45:44 45° NNE 04:48:44 10° ENE
USA 161 4.0 04:48:14 17° NNW 04:48:14 17° NNW 04:49:00 10° NNW
MOS 1 Rocket 3.0 04:44:41 10° N 04:49:02 70° WNW 04:49:34 62° WSW
Cosmos 389 Rocket 2.5 04:45:41 10° N 04:49:03 76° NNE 04:49:03 76° NNE
Cosmos 1624 Rocket 4.2 04:44:45 10° NNW 04:49:36 48° W 04:49:36 48° W
Resurs 1-4 Rocket 3.5 04:45:58 10° NNW 04:49:36 23° WNW 04:49:36 23° WNW
Cosmos 374 Rocket 4.2 04:48:39 10° NNW 04:52:26 79° WSW 04:56:54 10° SSE
Cosmos-2242 2.9 04:49:49 10° N 04:54:13 74° W 04:55:20 48° SSW
Meteor 2-5 Rocket 3.6 04:52:46 32° SSW 04:55:32 82° W 05:01:21 10° N
CZ-4B R/B 3.7 04:51:23 10° NNE 04:55:41 55° E 04:58:38 20° S
CZ-2D R/B 3.7 04:56:49 10° NNW 05:00:15 19° WNW 05:00:15 19° WNW
MOS 1-B 4.3 04:56:49 10° N 05:02:34 64° WNW 05:05:27 30° SW
Cosmos 921 Rocket 3.7 04:58:44 10° NNW 05:02:19 37° W 05:02:19 37° W
Cosmos 2056 Rocket 3.9 04:58:15 10° NW 05:03:08 38° W 05:03:28 38° WSW
Cosmos 2082 Rocket 2.1 05:08:27 26° SSW 05:11:46 79° WNW 05:17:30 10° NNE
Cosmos 1727 Rocket 4.4 05:10:06 29° SW 05:12:34 42° W 05:18:23 10° N
Cosmos 1833 Rocket 2.6 05:09:32 24° SSW 05:13:01 85° WNW 05:18:39 10° NNE
COSMOS 2455 4.5 05:10:30 10° WNW 05:12:08 16° WNW 05:12:08 16° WNW
DNEPR-1 R/B 3.7 05:14:15 10° NNW 05:18:31 77° ENE 05:23:13 10° SSE
Cosmos 158 Rocket 3.8 05:15:17 20° SSW 05:18:44 88° WNW 05:23:51 10° NNE
Cosmos 1656 4.3 05:16:45 10° NNW 05:22:06 57° ENE 05:27:25 10° SSE
CZ-4B R/B 3.1 05:19:39 10° NNE 05:25:02 90° ENE 05:30:19 10° SSW
PAYLOAD B 4.2 05:19:36 10° N 05:25:11 81° WNW 05:30:43 10° SSW
Landsat 4 4.1 05:24:55 27° SW 05:26:21 38° W 05:29:50 10° NNW
Cosmos 1707 4.2 05:27:49 19° WNW 05:27:49 19° WNW 05:30:37 10° NNW
Okean 3 Rocket 3.7 05:30:49 10° S 05:35:11 79° E 05:39:36 10° N
Meteor 1-31 Rocket 4.1 05:31:33 10° NNE 05:35:16 41° E 05:38:59 10° S
SL-16 R/B 4.4 05:36:44 10° W 05:36:44 10° W 05:37:07 10° WNW
Meteor 1-16 Rocket 4.2 05:32:24 10° NNW 05:37:35 51° W 05:42:41 10° SSW
Cosmos 1452 Rocket 3.7 05:33:11 10° NNW 05:38:12 46° WSW 05:43:12 10° S
USA 267 3.9 05:32:47 10° S 05:38:20 30° SW 05:43:54 10° WNW
ERS-2 4.0 05:39:05 10° NE 05:42:25 32° E 05:45:43 10° SSE
Cosmos 1802 Rocket 4.0 05:37:08 10° N 05:43:34 79° W 05:49:55 10° S
IRS-1C Rocket 4.3 05:41:50 10° N 05:46:55 51° WNW 05:52:00 10° SSW
CENTAUR R/B 3.5 05:42:26 10° NW 05:49:57 41° WSW 05:57:40 10° S
GPS 2-05 Rocket1 3.0 05:47:25 16° W 05:50:05 65° NNW 05:53:31 10° ENE
BREEZE-M DEB (TANK) 3.7 05:42:39 13° SW 05:51:05 89° SSE 05:54:32 10° NE
Cosmos 1459 Rocket 4.1 05:45:32 10° NNW 05:51:32 55° W 05:57:37 10° SSW
Okean O Rocket 2.5 05:48:06 10° N 05:51:59 31° WNW 05:55:38 11° SW
NOSS 8 (H) 4.4 05:49:52 13° SW 05:52:55 68° WNW 05:56:18 10° NNE
Intelsat 5-3 Rocket 3.6 05:51:19 14° SW 05:52:56 17° SSW 05:54:50 10° SSE
OE (NEXTSAT) 4.3 05:50:45 15° SW 05:53:33 87° NNW 05:57:06 10° NE
Cosmos 1420 Rocket 4.1 05:49:49 10° NNW 05:54:58 52° WSW 06:00:04 10° S
ADEOS II 2.7 05:51:26 10° N 05:56:13 36° WNW 06:00:59 10° SW
Meteor 1-24 Rocket 4.3 05:54:02 10° SW 05:58:55 34° WNW 06:03:59 10° NNW
Cosmos 1725 Rocket 4.2 05:53:12 10° N 05:59:30 79° E 06:05:47 10° S
Timation 2 Rocket 4.4 05:53:00 10° SW 05:59:34 53° WNW 06:05:55 10° N
Cosmos 1766 Rocket 4.0 05:55:20 10° S 05:59:46 67° E 06:04:13 10° NNE
In-Cosmos 22 4.3 05:55:18 10° SSW 06:00:29 51° W 06:05:38 10° N
SL-24 R/B 4.4 05:55:55 10° N 06:00:46 87° E 06:05:37 10° S
Tiangong 1 1.9 06:06:31 10° NW 06:09:15 46° NNE 06:12:00 10° ESE
SL-08 R/B 4.4 06:03:42 10° NNW 06:09:47 69° W 06:15:47 10° S
Cosmos 1076 Rocket 3.5 06:05:47 10° SSW 06:09:57 58° W 06:14:08 10° N
